Flag for Sweden Weather past 2 weeks in Uppsala, Sweden

Now
27 °F

Clear.


Feels Like: 17 °F
Forecast: 25 / 33 °F
Wind: 10 mph from West

Location: Stockholm / Arlanda

Current Time: Dec 21, 2014 at 2:22:35 AM

Latest Report: Dec 21, 2014 at 1:50 AM


Visibility: 10 mi

Pressure: 29.47 "Hg

Humidity: 86%

Dew point: 23 °F

Location of UppsalaLocation

Historic Weather in Uppsala — Graph

°F

Uppsala temperature yesterday

Maximum temperature yesterday: 37 °F (at 12:20 AM)
Minimum temperature yesterday: 27 °F (at 8:20 PM)
Average temperature yesterday: 32 °F

Past Weeks' High & Low Weather Summary

 TemperatureHumidityPressure
High41 °F (Dec 7, 7:50 PM)100% (Dec 6, 1:20 AM)30.01 "Hg (Dec 6, 1:20 AM)
Low23 °F (Dec 17, 9:20 PM)70% (Dec 16, 4:20 AM)28.80 "Hg (Dec 13, 2:20 AM)
Average35 °F93%29.45 "Hg
* Reported Dec 6 1:20 AM — Dec 21 1:20 AM, Uppsala, Weather by CustomWeather, © 2014

Note: Actual official high and low records may vary slightly from our data, if they occured in-between our weather recording intervals... More about our weather records

Advertising

Uppsala weather history for previous 24 hours

 ConditionsComfort  
Time TempWeatherWind HumidityBarometerVisibility
1:20 AM
Dec 21
27 °FClear.9 mph86%29.47 "Hg10 mi
12:50 AM27 °FClear.9 mph86%29.45 "Hg10 mi
12:20 AM27 °FClear.9 mph93%29.45 "Hg10 mi
11:50 PM
Dec 20
27 °FClear.8 mph93%29.42 "Hg10 mi
11:20 PM27 °FClear.7 mph93%29.42 "Hg10 mi
10:20 PM27 °FClear.8 mph93%29.39 "Hg10 mi
9:50 PM27 °FClear.8 mph93%29.36 "Hg10 mi
9:20 PM27 °FClear.8 mph93%29.36 "Hg10 mi
8:50 PM27 °FClear.8 mph93%29.33 "Hg10 mi
8:20 PM27 °FClear.8 mph93%29.30 "Hg10 mi
7:50 PM28 °FClear.7 mph93%29.30 "Hg10 mi
7:20 PM28 °FClear.7 mph93%29.27 "Hg10 mi
6:50 PM28 °FClear.6 mph93%29.27 "Hg10 mi
6:20 PM28 °FClear.7 mph93%29.24 "Hg10 mi
5:50 PM28 °FClear.8 mph93%29.24 "Hg10 mi
5:20 PM28 °FClear.8 mph100%29.21 "Hg10 mi
4:50 PM28 °FClear.8 mph100%29.21 "Hg10 mi
4:20 PM30 °FClear.8 mph93%29.18 "Hg10 mi
3:50 PM30 °FClear.8 mph93%29.18 "Hg10 mi
3:20 PM30 °FClear.6 mph93%29.18 "Hg10 mi
2:50 PM32 °FClear.8 mph87%29.15 "Hg10 mi
2:20 PM32 °FSunny.8 mph87%29.15 "Hg10 mi
1:20 PM34 °FSunny.9 mph81%29.12 "Hg10 mi
12:50 PM34 °FSunny.10 mph81%29.12 "Hg10 mi
12:20 PM34 °FSunny.10 mph87%29.12 "Hg10 mi
11:50 AM34 °FSunny.9 mph87%29.12 "Hg10 mi
11:20 AM34 °FSunny.9 mph87%29.12 "Hg10 mi
10:50 AM34 °FSunny.9 mph87%29.12 "Hg10 mi
10:20 AM34 °FSunny.7 mph93%29.12 "Hg10 mi
9:50 AM34 °FSunny.9 mph87%29.09 "Hg10 mi
9:20 AM34 °FSunny.7 mph87%29.09 "Hg10 mi
8:50 AM34 °FSunny.7 mph87%29.09 "Hg10 mi
8:20 AM34 °FClear.9 mph93%29.09 "Hg10 mi
7:50 AM34 °FClear.12 mph93%29.06 "Hg10 mi
7:20 AM34 °FClear.9 mph93%29.06 "Hg10 mi
6:50 AM34 °FClear.10 mph93%29.06 "Hg10 mi
6:20 AM36 °FClear.13 mph87%29.06 "Hg10 mi
5:50 AM36 °FClear.12 mph87%29.06 "Hg10 mi
5:20 AM36 °FClear.12 mph87%29.06 "Hg10 mi
4:50 AM36 °FClear.13 mph87%29.06 "Hg10 mi
4:20 AM34 °FClear.10 mph93%29.06 "Hg10 mi
3:50 AM36 °FClear.13 mph87%29.06 "Hg10 mi
3:20 AM36 °FClear.13 mph87%29.06 "Hg10 mi
2:50 AM36 °FClear.10 mph87%29.06 "Hg10 mi
2:20 AM36 °FClear.13 mph87%29.06 "Hg10 mi
Weather by CustomWeather, © 2014

See weather overviewHow to use our weather pages